This is the latest recevied weather packets stored in our database for station/object N4MGC. If no packets are shown the sender has not sent any weather packets the latest 10 day(s).
| Time | Temp. | Humidity | Pressure | Rain* | Wind** | Luminosity | Snow |
|---|---|---|---|---|---|---|---|
| 1777769552 | 14.44° C | 65% | 1016.5 hPa | 0 mm | - | 0 W/m² | - |
| 1777769247 | 14.44° C | 63% | 1016.5 hPa | 0 mm | - | 0 W/m² | - |
| 1777768946 | 15° C | 61% | 1016.5 hPa | 0 mm | - | 0 W/m² | - |
| 1777768643 | 15.56° C | 60% | 1016.2 hPa | 0 mm | - | 0 W/m² | - |
| 1777768340 | 15.56° C | 59% | 1016.1 hPa | 0 mm | - | 2 W/m² | - |
| 1777768036 | 16.11° C | 57% | 1016 hPa | 0 mm | - | 4 W/m² | - |
| 1777767734 | 16.67° C | 54% | 1015.9 hPa | 0 mm | - | 6 W/m² | - |
| 1777767429 | 17.22° C | 50% | 1016 hPa | 0 mm | - | 9 W/m² | - |
| 1777767126 | 17.22° C | 48% | 1015.9 hPa | 0 mm | - | 11 W/m² | - |
| 1777766824 | 17.78° C | 45% | 1015.6 hPa | 0 mm | - | 14 W/m² | - |
| 1777766521 | 18.33° C | 44% | 1015.8 hPa | 0 mm | - | 16 W/m² | - |
| 1777766218 | 18.33° C | 43% | 1015.9 hPa | 0 mm | - | 19 W/m² | - |
| 1777765916 | 18.89° C | 43% | 1015.6 hPa | 0 mm | - | 23 W/m² | - |
| 1777765612 | 18.89° C | 42% | 1015.4 hPa | 0 mm | - | 24 W/m² | - |
| 1777765309 | 18.89° C | 40% | 1015.5 hPa | 0 mm | - | 26 W/m² | - |
| 1777765005 | 18.89° C | 42% | 1015.5 hPa | 0 mm | - | 29 W/m² | - |
| 1777764702 | 19.44° C | 39% | 1015.3 hPa | 0 mm | - | 31 W/m² | - |
| 1777764398 | 19.44° C | 40% | 1015.4 hPa | 0 mm | - | 35 W/m² | - |
| 1777764096 | 19.44° C | 37% | 1015.8 hPa | 0 mm | - | 35 W/m² | - |
| 1777763792 | 19.44° C | 37% | 1015.6 hPa | 0 mm | - | 38 W/m² | - |
| 1777763490 | 20° C | 38% | 1015.5 hPa | 0 mm | - | 46 W/m² | - |
| 1777763188 | 20° C | 36% | 1015.5 hPa | 0 mm | - | 52 W/m² | - |
| 1777762886 | 20° C | 38% | 1015.5 hPa | 0 mm | - | 68 W/m² | - |
| 1777762581 | 20° C | 36% | 1015.8 hPa | 0 mm | - | 81 W/m² | - |
| 1777762279 | 20° C | 37% | 1015.6 hPa | 0 mm | - | 61 W/m² | - |
* Rain latest hour (hover to see other rain measurements)
** Current wind speed in m/s (hover to see current wind gust speed)